Content
SEND FEEDBACK

Daily
Averages
Monthly
Summary
United States of America

JACKSONVILLE, VERMONT


Home > North America > United States > Vermont
Elevation: 800 feet     Latitude: 42 44N     Longitude: 072 44W

WEATHER
 
SELECT A DAY
Number of Records: 201,921;   Date Range: 10/28/95 - 12/27/14
 
SHARE

PRINT THIS DATA

[ ← Previous Day ]
WEATHER ALMANAC - APRIL 1, 2014
[ Next Day → ]
[ °C ]   °F
Weather ElementAverageHighLow
Temperature39.3 °F52 °F (2:52 pm)28 °F (3:52 am)
Dewpoint28.3 °F35.1 °F (6:52 pm)24.1 °F (2:52 am)
Humidity66.4 %85 % (3:52 am)41 % (3:52 pm)
Barometer30.08 in30.15 in (7:52 am)30.00 in (5:52 pm)
Wind Speed4.2 mph9.2 mph (11:52 pm)
Weather ElementAverage
Visibility10 mi
Wind DirectionESE (117.8 °)

Weather ElementTotal
Precipitation---
Heating Degree Days25 (Base 65)
Averaged from 23 records on April 1, 2014
WEATHER CONDITIONS BREAKOUT
WIND DIRECTION BREAKOUT
WEATHER BY HOUR - APRIL 1, 2014
[ °C ]   °F
Local TimeTemperatureDewpointHumidityBarometerVisibilityWind DirectionWind SpeedGust SpeedPrecipitationEventsConditions
1:52 AM32.0 °F25.0 °F75 %30.12 in10.0 miCalmClear
2:52 AM30.0 °F24.1 °F79 %30.11 in10.0 miWSW (240°)4.6 mphClear
3:52 AM28.0 °F24.1 °F85 %30.12 in10.0 miWSW (240°)6.9 mphClear
4:52 AM28.9 °F24.1 °F82 %30.12 in10.0 miWest (260°)5.8 mphClear
5:52 AM28.9 °F24.1 °F82 %30.11 in10.0 miWSW (240°)6.9 mphClear
6:52 AM28.9 °F24.1 °F82 %30.14 in10.0 miWSW (240°)6.9 mphClear
7:52 AM30.0 °F25.0 °F82 %30.15 in10.0 miWSW (250°)5.8 mphClear
8:52 AM33.1 °F25.0 °F72 %30.15 in10.0 miWest (270°)6.9 mphClear
9:52 AM36.0 °F26.1 °F67 %30.15 in10.0 miVariable4.6 mphClear
10:52 AM39.9 °F27.0 °F60 %30.14 in10.0 miVariable5.8 mphClear
11:52 AM43.0 °F28.0 °F56 %30.11 in10.0 miVariable4.6 mphClear
12:52 PM46.0 °F30.0 °F54 %30.09 in10.0 miWest (270°)5.8 mphClear
1:52 PM48.9 °F28.9 °F46 %30.06 in10.0 miVariable4.6 mphClear
2:52 PM52.0 °F30.0 °F43 %30.05 in10.0 miNW (320°)5.8 mphClear
3:52 PM52.0 °F28.9 °F41 %30.04 in10.0 miCalmClear
4:52 PM51.1 °F28.9 °F43 %30.01 in10.0 miCalmClear
5:52 PM50.0 °F33.1 °F52 %30.00 in10.0 miCalmClear
6:52 PM44.1 °F35.1 °F71 %30.02 in10.0 miCalmClear
7:52 PM41.0 °F33.1 °F73 %30.04 in10.0 miCalmClear
8:52 PM42.1 °F32.0 °F67 %30.04 in10.0 miCalmClear
9:52 PM39.9 °F32.0 °F73 %30.06 in10.0 miSSE (150°)3.5 mphClear
10:52 PM39.9 °F30.9 °F70 %30.05 in10.0 miESE (120°)8.1 mphClear
11:52 PM39.0 °F30.9 °F73 %30.03 in10.0 miESE (110°)9.2 mphClear
Hourly data recorded from KAQW, located miles away from Jacksonville, Vermont







STORIES FROM OUR PARTNERS